Weather in Yezerishe

Belarus     55°50′09″N   29°58′59″E
temp.,
°C
wind,
m/s
gust,
m/s
humid.,
%
clouds,
%
prec.,
mm/h
press.,
hPa
HPBL,
m
13 june, sun
sun1300:00+13s389497 0.0 1004155
03:00+12sse389775 0.0 1003184
06:00+13s289494 0.0 1002237
09:00+18ssw2475100 0.1 1002721
12:00+18sw3486100 1.6 1003694
15:00+19nw337991 4.3 1004778
18:00+19nnw3570100 0.8 1004759
21:00+15n41091100 1.4 1006543
14 june, mon
mon1400:00+13n51294100 0.3 1008535
03:00+12n5119594 0.4 1010497
06:00+12nne51092100 0.0 1012483
09:00+14nne478193 0.0 1014566
12:00+20nne346399 0.0 10151207
15:00+18ne2572100 0.1 1015528
18:00+18nw018296 0.0 101638
21:00+16nnw1184100 0.1 101611
15 june, tue
tue1500:00+15wnw1186100 0.0 101611
03:00+15w1187100 0.0 101511
06:00+15wsw2391100 0.1 101595
09:00+17wnw3569100 0.1 1015372
12:00+21wsw354348 0.0 10141295
15:00+23w4539100 0.0 10131849
18:00+21w4662100 0.0 1012993
21:00+16wnw2695100 0.4 1013171
16 june, wed
wed1600:00+15wnw259857 0.0 1014156
03:00+12nw269929 0.0 1015149
06:00+11nnw28945 0.0 1016223
09:00+15nnw35675 0.0 1018639
12:00+20nne4546100 0.0 10181668
15:00+21nne4539100 0.0 10191970
18:00+21nne46425 0.0 10201766
21:00+15ne226947 0.0 102121
17 june, thu
thu1700:00+12nne22795 0.0 102327
03:00+10ne22840 0.0 102517
06:00+12ne12795 0.0 102641
09:00+18ne23525 0.0 1026501
12:00+22ne233697 0.0 10261423
15:00+23ne333390 0.0 10261657
18:00+23ne22385 0.0 10261384
21:00+17nne22665 0.0 102612